• Join FlightAware (Why Join?)
  • Login
  • US Flag 
07:02PM EDT


 

Airport Tracker/Info


-or-


 

Live Flight TrackerFlight Track Log ✈ EGF2730 ✈ 18-Jun-2013 ✈ KORD - CYYZ

Flight Track Log - Related Links

Times and Time Zones

All times are in EDT time to prevent confusion due to time zone crossing. See the EGF2730 flight status page for this flight to view local times or setup timezone preferences in your user account.

Time Position Orientation Groundspeed Altitude Reporting Facility
EDT Latitude Longitude Course Direction KTS MPH feet Rate Location/Type
02:31PM 42.0000 -87.8667 66° East 156 180 1,900  Level Chicago TRACON
02:32PM 42.0167 -87.7833 75° East 212 244 4,100 1,380 Climbing Chicago TRACON
02:33PM 42.0876 -87.5570 59° Northeast  Level FlightAware Approximate
02:33PM 42.0214 -87.7142 85° East 224 258 4,900  Level Chicago Center
02:34PM 42.1376 -87.4447 59° Northeast  Level FlightAware Approximate
02:34PM 42.0578 -87.6331 59° Northeast 251 289 5,000  Level Chicago Center
02:35PM 42.1799 -87.3271 66° East  Level FlightAware Approximate
02:35PM 42.0914 -87.5433 63° Northeast 263 303 7,000  Level Chicago Center
02:36PM 42.2197 -87.2075 66° East  Level FlightAware Approximate
02:36PM 42.1361 -87.4319 62° Northeast 281 323 9,500  Level Chicago Center
02:37PM 42.1736 -87.3314 63° Northeast 297 342 11,600 1,860 Climbing Chicago Center
02:38PM 42.2142 -87.2283 62° Northeast 310 357 13,400 1,740 Climbing Chicago Center
02:39PM 42.2564 -87.1217 62° Northeast 322 371 15,200 1,620 Climbing Chicago Center
02:40PM 42.2839 -87.0025 73° East 335 386 16,800 1,740 Climbing Chicago Center
02:41PM 42.2872 -86.8472 88° East 347 399 18,800 1,620 Climbing Chicago Center
02:42PM 42.2922 -86.7119 87° East 360 414 20,200 1,380 Climbing Chicago Center
02:43PM 42.2978 -86.5819 87° East 366 421 21,700 1,200 Climbing Chicago Center
02:44PM 42.3039 -86.4175 87° East 382 440 22,800 840 Climbing Chicago Center
02:45PM 42.3092 -86.2653 87° East 402 463 23,500 720 Climbing Chicago Center
02:46PM 42.3139 -86.1075 88° East 418 481 24,300 720 Climbing Chicago Center
02:47PM 42.3125 -85.9478 91° East 428 493 25,000 660 Climbing Chicago Center
02:48PM 42.3103 -85.7856 91° East 434 499 25,700 900 Climbing Chicago Center
02:49PM 42.3083 -85.5897 91° East 437 503 26,900 1,080 Climbing Chicago Center
02:50PM 42.3067 -85.4281 91° East 435 501 28,000 960 Climbing Chicago Center
02:52PM 42.3036 -85.2672 91° East 432 497 29,000 960 Climbing Chicago Center
02:53PM 42.3008 -85.1083 91° East 428 493 30,000 960 Climbing Chicago Center
02:54PM 42.2978 -84.9478 91° East 429 494 31,000 960 Climbing Chicago Center
02:55PM 42.3175 -84.7511 82° East 449 517 32,000 720 Climbing Chicago Center
02:56PM 42.3539 -84.5864 73° East 459 528 32,600 480 Climbing Chicago Center
02:57PM 42.3919 -84.4153 73° East 471 542 33,000 240 Climbing Chicago Center
02:57PM 42.4100 -84.3208 75° East 458 527 33,000  Level Cleveland Center
02:58PM 42.4492 -84.1375 74° East 479 551 33,000  Level Cleveland Center
02:59PM 42.4881 -83.9536 74° East 491 565 33,000  Level Cleveland Center
03:00PM 42.5264 -83.7756 74° East 496 571 33,000  Level Cleveland Center
03:01PM 42.5644 -83.5969 74° East 496 571 33,000  Level Cleveland Center
03:02PM 42.6006 -83.4125 75° East 496 571 33,000 -60 Level Cleveland Center
03:03PM 42.6381 -83.2333 74° East 490 564 32,900 -540 Descending Cleveland Center
03:04PM 42.6733 -83.0542 75° East 490 564 32,000 -960 Descending Cleveland Center
03:05PM 42.7081 -82.8833 74° East 485 558 31,000 -960 Descending Cleveland Center
03:06PM 42.7428 -82.7036 75° East 480 552 30,100 -960 Descending Cleveland Center
03:07PM 42.7772 -82.5208 76° East 486 559 29,100 -600 Descending Cleveland Center
03:08PM 42.8136 -82.3408 75° East 486 559 29,000 -60 Descending Cleveland Center
03:09PM 42.8475 -82.1606 76° East 486 559 29,000  Level Cleveland Center
03:11PM 42.9167 -81.7500 77° East 500 575 29,000  Level Toronto Center
03:12PM 42.9500 -81.5667 76° East 500 575 29,000 -960 Level Toronto Center
03:13PM 42.9833 -81.3833 76° East 500 575 27,100 -1,920 Descending Toronto Center
03:14PM 43.0000 -81.2000 83° East 490 564 25,200 -2,520 Descending Toronto Center
03:15PM 43.0667 -81.0500 59° Northeast 460 529 22,100 -3,000 Descending Toronto Center
03:16PM 43.1333 -80.9167 56° Northeast 450 518 19,200 -3,000 Descending Toronto Center
03:17PM 43.2333 -80.7833 44° Northeast 430 495 16,200 -2,820 Descending Toronto Center
03:18PM 43.2833 -80.6667 59° Northeast 410 472 13,600 -2,520 Descending Toronto Center
03:19PM 43.3500 -80.5500 52° Northeast 390 449 11,200 -1,800 Descending Toronto Center
03:20PM 43.4167 -80.4333 52° Northeast 350 403 10,000 -1,260 Descending Toronto Center
03:21PM 43.4500 -80.3500 61° Northeast 290 334 8,700 -1,380 Descending Toronto Center
03:22PM 43.4667 -80.2500 77° East 280 322 7,300 -600 Descending Toronto Center
03:24PM 43.4833 -80.0667 83° East 250 288 7,000 -480 Descending Toronto Center
03:25PM 43.4667 -79.9833 105° East 250 288 6,000 -1,260 Descending Toronto Center
03:26PM 43.4667 -79.8833 90° East 240 276 4,500 -1,500 Descending Toronto Center
03:27PM 43.5000 -79.8167 55° Northeast 230 265 3,100 -1,440 Descending Toronto Center